#timestamp,LO_Frequency,Hit,StdDev 
1503331215.7,286046998.3,N,1.5
1503331235.5,286046998.4,N,1.4
1503331255.4,286047000.6,N,1.5
1503331275.2,286046998.7,N,1.4
1503331295.1,286047001.1,N,1.4
1503331296.0,286047001.1,N,1.5
1503331315.8,286047000.8,N,1.5
1503331335.6,286047000.8,N,1.4
1503331355.5,286046999.9,N,1.4
1503331375.3,286047000.2,N,1.4
1503331395.2,286047000.6,N,1.4
1503331415.9,286047000.5,N,1.3
1503331435.7,286047000.6,N,1.3
1503331455.6,286047000.9,N,1.3
1503331475.4,286047000.2,N,1.3
1503331495.3,286047001.0,N,1.3
1503331515.1,286046999.9,N,1.2
1503331516.0,286046999.9,N,1.2
1503331535.8,286047000.3,N,1.2
1503331555.7,286047002.6,N,1.3
1503331575.5,286047004.3,Y,0.0
1503331595.4,286047001.6,P,0.8
1503331615.2,286047001.9,N,0.8
1503331635.0,286047004.0,P,1.4
1503331635.9,286047004.0,N,1.5
1503331655.8,286047001.4,N,1.4
1503331675.6,286047004.1,N,1.5
1503331695.4,286047004.4,N,1.5
1503331715.3,286047003.1,N,1.5
1503331735.1,286047005.9,Y,0.0
1503331755.9,286047002.4,P,0.2
1503331775.7,286047003.8,P,0.6
1503331795.6,286047001.6,N,0.8
1503331815.4,286047003.5,Y,0.0
1503331835.2,286047000.2,P,1.2
1503331855.1,286047000.0,N,1.2
1503331856.0,286047000.0,N,1.1
1503331875.8,286047002.6,N,1.3
1503331895.7,286046999.8,N,1.2
1503331915.5,286046999.9,N,1.2
1503331935.3,286047000.2,N,1.1
1503331955.2,286046999.8,N,1.1
1503331975.0,286047002.7,N,1.2
1503331975.9,286047002.7,N,1.3
1503331995.8,286047002.4,N,1.3
1503332015.6,286047001.9,N,1.3
1503332035.4,286047001.4,N,1.2
1503332055.3,286047001.9,N,1.2
1503332075.1,286047002.3,N,1.2
1503332095.9,286682706.9,Y,0.0
1503332115.7,286047002.6,P,0.7
1503332135.5,286047002.6,P,0.6
1503332155.4,286047002.5,P,0.6
1503332175.2,286047002.8,Y,0.0
1503332195.1,286046998.9,P,1.7
1503332196.0,286046998.9,N,1.6
1503332215.8,286046998.1,N,1.6
1503332235.6,286046998.4,N,1.5
1503332255.5,286047000.5,N,1.4
1503332275.3,286047001.1,N,1.4
1503332295.2,286046998.2,N,1.4
1503332315.9,286046998.5,N,1.4
1503332335.7,286046998.2,N,1.4
1503332355.6,286047001.1,N,1.4
1503332375.4,286047001.0,N,1.4
1503332395.3,286047000.9,N,1.4
1503332415.1,286047001.0,N,1.4
1503332416.0,286047001.0,N,1.4
1503332435.8,286046999.7,N,1.3
1503332455.7,286047000.9,N,1.3
1503332475.5,286047000.6,N,1.3
1503332495.4,286046999.8,N,1.3
1503332515.2,286047000.2,N,1.2
1503332535.0,286047000.3,N,1.2
1503332535.9,286047000.3,N,1.2
1503332555.8,286047000.4,N,1.2
1503332575.6,286047000.5,N,1.1
1503332595.4,286046998.2,N,1.2
1503332615.3,286047001.1,N,1.2
1503332635.1,286047000.6,N,1.1
1503332655.9,286047000.3,N,1.1
1503332675.7,286047000.7,N,1.1
1503332695.5,286047000.8,N,1.1
1503332715.4,286047000.6,N,1.0
1503332735.2,286047002.8,N,1.1
1503332755.1,286047000.3,N,1.1
1503332756.0,286047000.3,N,1.0
1503332775.8,286047000.0,N,1.0
1503332795.6,286047000.0,N,1.0
1503332815.5,286046999.9,N,1.0
1503332835.3,286047001.8,N,0.9
1503332855.2,286047002.2,N,0.9
1503332875.9,286047000.1,N,0.8
1503332895.7,286047001.0,N,0.8
1503332915.6,286047001.0,N,0.8
1503332935.4,286047000.2,N,0.8
1503332955.3,286047002.4,N,0.9
1503332975.1,286047002.5,N,0.9
1503332976.0,286047002.5,N,1.0
1503332995.8,286047002.6,N,1.0
1503333015.7,286047000.1,N,1.0
1503333035.5,286047000.1,N,1.0
1503333055.4,286047002.1,N,1.0
1503333075.2,286047002.6,N,1.1
1503333095.0,286047002.2,N,1.1
1503333095.9,286047002.2,N,1.1
1503333115.8,286047002.1,N,1.1
1503333135.6,286043727.5,Y,0.0
1503333155.5,286047002.4,P,0.6
1503333175.3,286047000.1,N,0.9
1503333195.1,286047000.2,N,0.9
1503333215.9,286047002.8,N,1.1
1503333235.7,286046999.7,N,1.2
1503333255.6,286046998.1,N,1.5
1503333275.4,286047000.9,N,1.4
1503333295.2,286046998.5,N,1.5
1503333315.1,286046998.1,N,1.6
1503333316.0,286046998.1,N,1.6
1503333335.8,286046998.1,N,1.6
1503333355.7,286047000.5,N,1.6
1503333375.5,286047000.3,N,1.5
1503333395.3,286047000.3,N,1.5
1503333415.2,286046999.9,N,1.4
1503333435.0,286047002.7,N,1.5
1503333435.9,286047002.7,N,1.6
1503333455.8,286047002.8,N,1.7
1503333475.6,286047001.3,N,1.6
1503333495.4,286047004.3,N,1.8
1503333515.3,286047001.5,N,1.8
1503333535.1,286047001.5,N,1.7
1503333555.8,286047002.0,N,1.7
1503333575.7,286047000.1,N,1.7
1503333595.5,286047000.1,N,1.7
1503333615.4,286047002.3,N,1.7
1503333635.2,286046999.9,N,1.6
1503333655.0,286046999.8,N,1.6
1503333655.9,286046999.8,N,1.6
1503333675.8,286046999.7,N,1.6
1503333695.6,286047000.2,N,1.6
1503333715.5,286046999.8,N,1.6
1503333735.3,286047000.2,N,1.6
1503333755.1,286046999.8,N,1.5
1503333775.9,286046999.8,N,1.5
1503333795.7,286047000.1,N,1.5
1503333815.6,286047000.2,N,1.5
1503333835.4,286047000.2,N,1.4
1503333855.3,286046999.9,N,1.3
1503333875.1,286047002.2,N,1.3
1503333876.0,286047002.2,N,1.2
1503333895.8,286047001.7,N,1.2
1503333915.7,286047001.9,N,1.2
1503333935.5,286047002.5,N,1.3
1503333955.3,286047000.2,N,1.2
1503333975.2,286047000.2,N,1.2
1503333995.0,286047002.3,N,1.2
1503333995.9,286047002.3,N,1.2
1503334015.8,286046999.9,N,1.2
1503334035.6,286046999.8,N,1.0
1503334055.4,286047002.3,N,1.0
1503334075.3,286047001.4,N,1.0
1503334095.1,286047002.5,N,1.1
1503334115.9,286047001.7,N,1.1
1503334135.7,286047001.6,N,1.1
1503334155.5,286047002.6,N,1.1
1503334175.4,286047000.0,N,1.1
1503334195.2,286047002.7,N,1.1
1503334215.1,286047002.4,N,1.1
1503334216.0,286047002.4,N,1.1
1503334235.8,286047000.0,N,1.1
1503334255.6,286047000.0,N,1.1
1503334275.5,286046999.8,N,1.1
1503334295.3,286047002.7,N,1.1
1503334315.2,286047002.2,N,1.1
1503334335.9,286047001.6,N,1.1
1503334355.7,286047002.1,N,1.1
1503334375.6,286047002.2,N,1.1
1503334395.4,286047002.5,N,1.0
1503334415.3,286047001.7,N,1.0
1503334435.1,286047002.6,N,1.0
1503334436.0,286047002.6,N,1.0
1503334455.8,286047002.8,N,1.1
1503334475.7,286047000.1,N,1.1
1503334495.5,286047002.5,N,1.1
1503334515.3,286047000.3,N,1.1
1503334535.2,286047000.2,N,1.1
1503334555.0,286047002.0,N,1.1
1503334555.9,286047002.0,N,1.0
1503334575.8,286047001.4,N,1.0
1503334595.6,286047001.7,N,1.0
1503334615.4,286047001.6,N,1.0
1503334635.3,286047001.9,N,1.0
1503334655.1,286047001.5,N,1.0
1503334675.9,286047001.4,N,1.0
1503334695.7,286047003.9,Y,0.0
1503334715.5,286047001.6,P,0.0
1503334735.4,286047001.5,P,0.1
1503334755.2,286047001.9,P,0.1
1503334775.1,286047001.7,Y,0.0
1503334776.0,286047001.7,P,0.0
1503334795.8,286047000.4,P,0.6
